Rutherfordton, NC

3:59 AM EDT on May 29, 2017 (GMT -0400)
Rutherford County-Marchman

Weather History for KFQD - February, 2013

Change the Weather History Date:

Thursday, February 21, 2013

  Actual Average (KAVL) Record (KAVL)
Temperature  
Mean Temperature 40 °F -  
Max Temperature 57 °F 55 °F 77 °F (1986)
Min Temperature 23 °F 29 °F 8 °F (1896)
Degree Days  
Heating Degree Days 25    
Moisture  
Dew Point 16 °F    
Average Humidity 40    
Maximum Humidity 97    
Minimum Humidity 19    
Precipitation  
Precipitation 0.13 in - - ()
Sea Level Pressure  
Sea Level Pressure 30.15 in    
Wind  
Wind Speed 2 mph (SE)    
Max Wind Speed 7 mph    
Max Gust Speed -    
Visibility 10 miles    
Events Rain    
Averages and records for this station are not official NWS values.
T = Trace of Precipitation, MM = Missing Value Source: NWS Daily Summary

Daily Weather History Graph

Daily Weather History Graph

Search for Another Location

Airport or City:

Trip Planner

Search our weather history database for the weather conditions in past years. The results will help you decide how hot, cold, wet, or windy it might be!

Date:

Astronomy

Feb. 21, 2013 Rise Set
Actual Time 7:07 AM EST 6:15 PM EST
Civil Twilight 6:41 AM EST 6:41 PM EST
Nautical Twilight 6:11 AM EST 7:11 PM EST
Astronomical Twilight 5:42 AM EST 7:40 PM EST
Moon 2:35 PM EST (2/21) 4:05 AM EST (2/21)
Length of Visible Light 12h 00m
Length of Day
11h 08m
Waxing Gibbous, 83% of the Moon is Illuminated
Feb 21
Waxing Gibbous
Feb 25
Full
Mar 4
Last Quarter
Mar 11
New
Mar 19
First Quarter

Hourly Weather History & Observations

Time (EST) Temp. Windchill Dew Point Humidity Pressure Visibility Wind Dir Wind Speed Gust Speed Precip Events Conditions
12:15 AM 35.4 °F 31.5 °F 5.7 °F 29% 30.10 in 10.0 mi North 4.6 mph - N/A   Clear
12:35 AM 34.0 °F - 6.1 °F 31% 30.11 in 10.0 mi Calm Calm - N/A   Clear
12:55 AM 34.0 °F - 5.7 °F 31% 30.11 in 10.0 mi Calm Calm - N/A   Clear
1:15 AM 31.1 °F - 7.2 °F 37% 30.11 in 10.0 mi Calm Calm - N/A   Clear
1:35 AM 32.0 °F - 7.7 °F 36% 30.11 in 10.0 mi Calm Calm - N/A   Clear
1:55 AM 32.0 °F - 7.9 °F 36% 30.12 in 10.0 mi Calm Calm - N/A   Clear
2:15 AM 31.6 °F - 7.7 °F 37% 30.12 in 10.0 mi Calm Calm - N/A   Clear
2:35 AM 31.3 °F - 7.9 °F 37% 30.13 in 10.0 mi Calm Calm - N/A   Clear
2:55 AM 32.4 °F 29.1 °F 7.2 °F 35% 30.13 in 10.0 mi NNW 3.5 mph - N/A   Clear
3:15 AM 28.0 °F - 10.4 °F 48% 30.13 in 10.0 mi Calm Calm - N/A   Clear
3:35 AM 29.3 °F 25.6 °F 9.3 °F 43% 30.13 in 10.0 mi NNW 3.5 mph - N/A   Clear
3:55 AM 27.7 °F - 11.1 °F 50% 30.13 in 10.0 mi Calm Calm - N/A   Clear
4:15 AM 28.6 °F 24.8 °F 10.0 °F 46% 30.13 in 10.0 mi North 3.5 mph - N/A   Clear
4:35 AM 26.2 °F - 12.0 °F 55% 30.14 in 10.0 mi Calm Calm - N/A   Clear
4:55 AM 27.5 °F - 10.8 °F 49% 30.14 in 10.0 mi Calm Calm - N/A   Clear
5:15 AM 27.1 °F - 12.4 °F 54% 30.14 in 10.0 mi Calm Calm - N/A   Clear
5:35 AM 25.3 °F - 12.7 °F 59% 30.15 in 10.0 mi Calm Calm - N/A   Clear
5:55 AM 26.6 °F - 12.7 °F 56% 30.16 in 10.0 mi Calm Calm - N/A   Clear
6:15 AM 25.7 °F - 13.1 °F 59% 30.16 in 10.0 mi Calm Calm - N/A   Clear
7:15 AM 23.9 °F - 14.9 °F 69% 30.18 in 10.0 mi Calm Calm - N/A   Clear
7:35 AM 25.9 °F - 13.1 °F 58% 30.18 in 10.0 mi Calm Calm - N/A   Clear
7:55 AM 26.2 °F - 17.8 °F 70% 30.19 in 10.0 mi Calm Calm - N/A   Clear
8:15 AM 28.2 °F - 16.5 °F 62% 30.20 in 10.0 mi Calm Calm - N/A   Clear
8:35 AM 31.5 °F - 16.5 °F 54% 30.21 in 10.0 mi Calm Calm - N/A   Clear
8:55 AM 32.5 °F - 17.4 °F 54% 30.21 in 10.0 mi Calm Calm - N/A   Clear
9:15 AM 35.1 °F - 13.3 °F 41% 30.21 in 10.0 mi Calm Calm - N/A   Clear
9:35 AM 37.9 °F - 13.3 °F 36% 30.21 in 10.0 mi Calm Calm - N/A   Clear
9:55 AM 39.7 °F 37.6 °F 13.1 °F 34% 30.21 in 10.0 mi West 3.5 mph - N/A   Clear
10:15 AM 40.6 °F - 12.2 °F 31% 30.21 in 10.0 mi Calm Calm - N/A   Clear
10:35 AM 42.1 °F - 12.0 °F 29% 30.21 in 10.0 mi Calm Calm - N/A   Clear
10:55 AM 42.8 °F - 11.7 °F 28% 30.19 in 10.0 mi Calm Calm - N/A   Clear
11:15 AM 44.8 °F - 13.3 °F 28% 30.19 in 10.0 mi Calm Calm - N/A   Clear
11:35 AM 46.0 °F 43.9 °F 13.3 °F 27% 30.19 in 10.0 mi South 4.6 mph - N/A   Clear
11:55 AM 47.7 °F - 13.6 °F 26% 30.17 in 10.0 mi Calm Calm - N/A   Clear
12:15 PM 48.9 °F - 12.7 °F 23% 30.16 in 10.0 mi SSE 3.5 mph - N/A   Clear
12:35 PM 49.8 °F - 12.0 °F 22% 30.15 in 10.0 mi South 3.5 mph - N/A   Clear
12:55 PM 51.6 °F - 12.6 °F 21% 30.13 in 10.0 mi South 4.6 mph - N/A   Clear
1:15 PM 53.1 °F - 15.1 °F 22% 30.12 in 10.0 mi SSE 6.9 mph - N/A   Clear
1:35 PM 54.3 °F - 16.2 °F 22% 30.10 in 10.0 mi SSE 3.5 mph - N/A   Clear
1:55 PM 54.0 °F - 15.8 °F 22% 30.09 in 10.0 mi Calm Calm - N/A   Clear
2:15 PM 55.6 °F - 13.6 °F 19% 30.08 in 10.0 mi Calm Calm - N/A   Clear
2:35 PM 55.8 °F - 15.3 °F 20% 30.08 in 10.0 mi SE 6.9 mph - N/A   Clear
2:55 PM 57.0 °F - 16.2 °F 20% 30.09 in 10.0 mi SSE 3.5 mph - N/A   Clear
3:15 PM 57.2 °F - 17.2 °F 21% 30.10 in 10.0 mi SE 4.6 mph - N/A   Clear
3:55 PM 56.7 °F - 16.7 °F 21% 30.09 in 10.0 mi SSE 3.5 mph - N/A   Clear
4:15 PM 56.7 °F - 16.0 °F 20% 30.08 in 10.0 mi SSE 4.6 mph - N/A   Clear
4:35 PM 56.5 °F - 17.1 °F 21% 30.08 in 10.0 mi South 5.8 mph - N/A   Clear
4:55 PM 56.1 °F - 16.7 °F 21% 30.09 in 10.0 mi SE 4.6 mph - N/A   Clear
5:15 PM 55.4 °F - 17.8 °F 23% 30.08 in 10.0 mi SSE 4.6 mph - N/A   Clear
5:35 PM 55.0 °F - 17.8 °F 23% 30.09 in 10.0 mi South 5.8 mph - N/A   Clear
5:55 PM 53.6 °F - 18.3 °F 25% 30.10 in 10.0 mi Calm Calm - N/A   Clear
6:15 PM 53.4 °F - 17.4 °F 24% 30.11 in 10.0 mi Calm Calm - N/A   Clear
6:35 PM 52.9 °F - 18.7 °F 26% 30.10 in 10.0 mi ESE 4.6 mph - N/A   Clear
6:55 PM 52.2 °F - 18.7 °F 27% 30.10 in 10.0 mi East 3.5 mph - N/A   Clear
7:15 PM 51.8 °F - 19.9 °F 29% 30.11 in 10.0 mi Calm Calm - N/A   Clear
7:35 PM 51.3 °F - 20.3 °F 30% 30.11 in 10.0 mi Calm Calm - N/A   Clear
7:55 PM 50.5 °F - 20.7 °F 31% 30.11 in 10.0 mi Calm Calm - N/A   Clear
8:15 PM 50.5 °F - 20.3 °F 30% 30.13 in 10.0 mi ESE 3.5 mph - N/A   Clear
8:35 PM 50.7 °F - 19.2 °F 29% 30.12 in 10.0 mi Calm Calm - N/A   Scattered Clouds
8:55 PM 50.5 °F - 19.6 °F 30% 30.14 in 10.0 mi ENE 3.5 mph - N/A   Mostly Cloudy
9:15 PM 49.5 °F - 24.3 °F 37% 30.18 in 10.0 mi Calm Calm - N/A Rain Light Rain
9:35 PM 46.9 °F - 26.6 °F 45% 30.21 in 10.0 mi WSW 3.5 mph - N/A Rain Light Rain
9:55 PM 45.7 °F 44.4 °F 31.8 °F 58% 30.18 in 10.0 mi ENE 3.5 mph - N/A Rain Light Rain
10:15 PM 43.9 °F 42.3 °F 34.5 °F 70% 30.17 in 10.0 mi ENE 3.5 mph - N/A Rain Light Rain
10:35 PM 43.7 °F - 33.1 °F 66% 30.19 in 10.0 mi Calm Calm - 0.01 in Rain Light Rain
10:55 PM 41.2 °F - 38.7 °F 91% 30.21 in 7.0 mi Calm Calm - 0.03 in Rain Rain
11:15 PM 41.9 °F - 37.0 °F 83% 30.24 in 10.0 mi Calm Calm - 0.01 in Rain Light Rain
11:35 PM 39.9 °F - 39.2 °F 97% 30.24 in 5.0 mi Calm Calm - 0.05 in Rain Rain
11:55 PM 40.5 °F 37.3 °F 36.5 °F 86% 30.24 in 5.0 mi NNE 4.6 mph - 0.10 in Rain Light Rain